Pittsfield, IL

6:19 PM CDT on September 25, 2017 (GMT -0500)
Pittsfield Penstone Municipal

Weather History for KPPQ - January, 2012

Change the Weather History Date:

Monday, January 16, 2012

  Actual Average (KUIN) Record (KUIN)
Temperature  
Mean Temperature 52 °F -  
Max Temperature 65 °F 34 °F 69 °F (1990)
Min Temperature 38 °F 16 °F -19 °F (1977)
Degree Days  
Heating Degree Days 14    
Growing Degree Days 2 (Base 50)    
Moisture  
Dew Point 39 °F    
Average Humidity 67    
Maximum Humidity 80    
Minimum Humidity 53    
Precipitation  
Precipitation 0.00 in - - ()
Sea Level Pressure  
Sea Level Pressure 29.79 in    
Wind  
Wind Speed 9 mph (South)    
Max Wind Speed 20 mph    
Max Gust Speed 26 mph    
Visibility 10 miles    
Events      
Averages and records for this station are not official NWS values.
T = Trace of Precipitation, MM = Missing Value Source: NWS Daily Summary

Daily Weather History Graph

Daily Weather History Graph

Search for Another Location

Airport or City:

Trip Planner

Search our weather history database for the weather conditions in past years. The results will help you decide how hot, cold, wet, or windy it might be!

Date:

Astronomy

Jan. 16, 2012 Rise Set
Actual Time 7:21 AM CST 5:03 PM CST
Civil Twilight 6:52 AM CST 5:33 PM CST
Nautical Twilight 6:19 AM CST 6:06 PM CST
Astronomical Twilight 5:46 AM CST 6:38 PM CST
Moon 12:31 AM CST (1/16) 11:17 AM CST (1/16)
Length of Visible Light 10h 41m
Length of Day
9h 42m
Last Quarter, 46% of the Moon is Illuminated
Jan 16
Last Quarter
Jan 23
New
Jan 30
First Quarter
Feb 7
Full
Feb 14
Last Quarter

Hourly Weather History & Observations

Time (CST) Temp. Windchill Dew Point Humidity Pressure Visibility Wind Dir Wind Speed Gust Speed Precip Events Conditions
12:15 AM 38.1 °F 31.7 °F 29.5 °F 71% 29.96 in 10.0 mi South 9.2 mph - N/A   Clear
12:35 AM 39.2 °F 33.6 °F 30.2 °F 70% 29.96 in 10.0 mi South 8.1 mph - N/A   Clear
12:55 AM 38.3 °F 32.5 °F 30.0 °F 72% 29.94 in 10.0 mi South 8.1 mph - N/A   Clear
1:15 AM 38.5 °F 32.1 °F 30.2 °F 72% 29.93 in 10.0 mi South 9.2 mph - N/A   Clear
1:35 AM 39.0 °F 33.4 °F 30.7 °F 72% 29.93 in 10.0 mi South 8.1 mph - N/A   Clear
1:55 AM 39.2 °F 33.0 °F 30.9 °F 72% 29.92 in 10.0 mi South 9.2 mph - N/A   Clear
2:15 AM 38.8 °F 34.6 °F 30.9 °F 73% 29.91 in 10.0 mi South 5.8 mph - N/A   Clear
2:35 AM 39.2 °F 33.6 °F 31.1 °F 73% 29.91 in 10.0 mi South 8.1 mph - N/A   Clear
2:55 AM 39.2 °F 35.0 °F 31.1 °F 73% 29.90 in 10.0 mi South 5.8 mph - N/A   Clear
3:15 AM 40.6 °F 34.8 °F 31.8 °F 71% 29.89 in 10.0 mi South 9.2 mph - N/A   Clear
3:35 AM 41.0 °F 36.4 °F 32.0 °F 70% 29.88 in 10.0 mi South 6.9 mph - N/A   Clear
3:55 AM 40.8 °F 36.9 °F 32.0 °F 71% 29.88 in 10.0 mi SE 5.8 mph - N/A   Clear
4:15 AM 39.7 °F 36.5 °F 31.6 °F 73% 29.87 in 10.0 mi ESE 4.6 mph - N/A   Clear
4:35 AM 39.0 °F 35.7 °F 31.6 °F 75% 29.87 in 10.0 mi ESE 4.6 mph - N/A   Clear
4:55 AM 39.4 °F 36.1 °F 31.6 °F 74% 29.86 in 10.0 mi ESE 4.6 mph - N/A   Clear
5:15 AM 39.0 °F 35.7 °F 31.8 °F 75% 29.86 in 10.0 mi East 4.6 mph - N/A   Clear
5:35 AM 39.4 °F 36.1 °F 32.0 °F 75% 29.85 in 10.0 mi East 4.6 mph - N/A   Clear
5:55 AM 39.7 °F 36.5 °F 32.0 °F 74% 29.85 in 10.0 mi ESE 4.6 mph - N/A   Clear
6:15 AM 39.9 °F 36.7 °F 32.0 °F 73% 29.85 in 10.0 mi SSE 4.6 mph - N/A   Clear
6:35 AM 39.0 °F 34.0 °F 32.2 °F 76% 29.85 in 10.0 mi SSE 6.9 mph - N/A   Clear
6:55 AM 39.6 °F 34.0 °F 32.9 °F 77% 29.84 in 10.0 mi SSE 8.1 mph - N/A   Clear
7:15 AM 41.0 °F 36.4 °F 33.6 °F 75% 29.84 in 10.0 mi SSE 6.9 mph - N/A   Clear
7:35 AM 39.2 °F 34.2 °F 33.1 °F 79% 29.84 in 10.0 mi SE 6.9 mph - N/A   Clear
7:55 AM 39.2 °F 35.0 °F 33.3 °F 79% 29.83 in 10.0 mi SE 5.8 mph - N/A   Clear
8:15 AM 40.1 °F 35.3 °F 33.8 °F 78% 29.83 in 10.0 mi SE 6.9 mph - N/A   Clear
8:35 AM 39.7 °F 35.6 °F 33.8 °F 79% 29.83 in 10.0 mi SE 5.8 mph - N/A   Clear
8:55 AM 39.7 °F 36.5 °F 34.0 °F 80% 29.83 in 10.0 mi ESE 4.6 mph - N/A   Clear
9:15 AM 43.0 °F 38.8 °F 35.6 °F 75% 29.82 in 10.0 mi SE 6.9 mph - N/A   Clear
9:35 AM 45.9 °F 42.3 °F 37.0 °F 71% 29.82 in 10.0 mi SSE 6.9 mph - N/A   Clear
9:55 AM 49.5 °F - 38.8 °F 67% 29.81 in 10.0 mi South 11.5 mph 17.3 mph N/A   Clear
10:15 AM 51.3 °F - 40.1 °F 66% 29.80 in 10.0 mi South 13.8 mph - N/A   Clear
10:35 AM 52.9 °F - 41.2 °F 64% 29.80 in 10.0 mi South 11.5 mph 17.3 mph N/A   Clear
10:55 AM 54.0 °F - 42.3 °F 65% 29.79 in 10.0 mi South 12.7 mph 16.1 mph N/A   Clear
11:15 AM 55.4 °F - 43.3 °F 64% 29.77 in 10.0 mi South 13.8 mph 20.7 mph N/A   Clear
11:35 AM 56.8 °F - 44.2 °F 63% 29.75 in 10.0 mi South 11.5 mph - N/A   Clear
11:55 AM 59.0 °F - 45.9 °F 62% 29.73 in 10.0 mi South 10.4 mph 17.3 mph N/A   Scattered Clouds
12:15 PM 61.3 °F - 47.3 °F 60% 29.72 in 10.0 mi SSW 13.8 mph 21.9 mph N/A   Mostly Cloudy
12:35 PM 61.9 °F - 47.5 °F 59% 29.70 in 10.0 mi SSW 18.4 mph 25.3 mph N/A   Mostly Cloudy
12:55 PM 63.7 °F - 47.7 °F 56% 29.70 in 10.0 mi SSW 19.6 mph 26.5 mph N/A   Mostly Cloudy
1:15 PM 63.1 °F - 47.8 °F 57% 29.69 in 10.0 mi SW 16.1 mph 21.9 mph N/A   Mostly Cloudy
1:35 PM 63.5 °F - 47.7 °F 56% 29.68 in 10.0 mi SSW 13.8 mph 19.6 mph N/A   Mostly Cloudy
1:55 PM 63.7 °F - 47.5 °F 56% 29.68 in 10.0 mi SSW 17.3 mph 20.7 mph N/A   Overcast
2:15 PM 64.2 °F - 47.7 °F 55% 29.67 in 10.0 mi SSW 13.8 mph 21.9 mph N/A   Mostly Cloudy
2:35 PM 64.6 °F - 47.5 °F 54% 29.66 in 10.0 mi SSW 12.7 mph 19.6 mph N/A   Mostly Cloudy
2:55 PM 64.8 °F - 47.5 °F 53% 29.66 in 10.0 mi SSW 13.8 mph 25.3 mph N/A   Scattered Clouds
3:15 PM 64.8 °F - 48.0 °F 55% 29.66 in 10.0 mi SSW 13.8 mph 17.3 mph N/A   Mostly Cloudy
3:35 PM 65.7 °F - 48.2 °F 53% 29.66 in 10.0 mi SSW 11.5 mph 18.4 mph N/A   Mostly Cloudy
3:55 PM 65.3 °F - 48.4 °F 54% 29.66 in 10.0 mi South 11.5 mph 17.3 mph N/A   Scattered Clouds
4:15 PM 64.6 °F - 48.4 °F 56% 29.65 in 10.0 mi South 11.5 mph 16.1 mph N/A   Clear
4:35 PM 63.3 °F - 48.6 °F 59% 29.65 in 10.0 mi South 8.1 mph - N/A   Clear
4:55 PM 61.7 °F - 48.4 °F 62% 29.65 in 10.0 mi South 5.8 mph - N/A   Clear
5:15 PM 61.0 °F - 48.2 °F 63% 29.66 in 10.0 mi South 5.8 mph - N/A   Clear
5:35 PM 59.0 °F - 47.7 °F 66% 29.66 in 10.0 mi South 5.8 mph - N/A   Clear
5:55 PM 59.4 °F - 47.8 °F 66% 29.67 in 10.0 mi SSW 8.1 mph - N/A   Clear
6:15 PM 59.0 °F - 48.2 °F 67% 29.67 in 10.0 mi South 8.1 mph - N/A   Clear
6:35 PM 58.5 °F - 48.2 °F 69% 29.67 in 10.0 mi South 8.1 mph - N/A   Clear
6:55 PM 58.1 °F - 48.4 °F 70% 29.67 in 10.0 mi South 9.2 mph - N/A   Clear
7:15 PM 58.1 °F - 48.9 °F 71% 29.67 in 10.0 mi South 12.7 mph 16.1 mph N/A   Clear
7:35 PM 58.3 °F - 49.5 °F 72% 29.67 in 10.0 mi South 12.7 mph 19.6 mph N/A   Scattered Clouds
7:55 PM 59.0 °F - 50.0 °F 72% 29.68 in 10.0 mi SSW 13.8 mph - N/A   Scattered Clouds
8:15 PM 58.3 °F - 50.0 °F 74% 29.68 in 10.0 mi SSW 12.7 mph - N/A   Scattered Clouds
8:35 PM 58.3 °F - 50.2 °F 74% 29.68 in 10.0 mi SSW 11.5 mph - N/A   Mostly Cloudy
8:55 PM 58.3 °F - 50.4 °F 75% 29.68 in 10.0 mi South 12.7 mph 17.3 mph N/A   Scattered Clouds
9:15 PM 58.6 °F - 50.5 °F 74% 29.68 in 10.0 mi SSW 12.7 mph 19.6 mph N/A   Mostly Cloudy
9:35 PM 58.6 °F - 50.9 °F 75% 29.68 in 10.0 mi South 12.7 mph 18.4 mph N/A   Overcast
9:55 PM 59.0 °F - 51.1 °F 75% 29.67 in 10.0 mi South 12.7 mph 17.3 mph N/A   Scattered Clouds
10:15 PM 58.6 °F - 51.3 °F 76% 29.67 in 10.0 mi South 13.8 mph 18.4 mph N/A   Scattered Clouds
10:35 PM 57.7 °F - 51.1 °F 78% 29.68 in 10.0 mi WSW 6.9 mph - N/A   Scattered Clouds
10:55 PM 57.2 °F - 50.9 °F 79% 29.68 in 10.0 mi SSW 8.1 mph - N/A   Mostly Cloudy
11:15 PM 57.6 °F - 51.4 °F 80% 29.67 in 10.0 mi SSW 9.2 mph - N/A   Overcast
11:35 PM 56.3 °F - 52.5 °F 87% 29.66 in 5.0 mi SW 6.9 mph - 0.08 in Rain Heavy Rain